owner,sensor,date,latitude,longitude,air_temperature,qcFlag 
COMPS,ioos:station:USF.COMPS:TAR:1,2010-03-01T00:00:00Z,28.1560,-82.7580,11.83,1111122 
COMPS,ioos:station:USF.COMPS:TAR:1,2010-03-01T00:06:00Z,28.1560,-82.7580,11.81,1111122 
COMPS,ioos:station:USF.COMPS:TAR:1,2010-03-01T00:12:00Z,28.1560,-82.7580,11.77,1111122 
COMPS,ioos:station:USF.COMPS:TAR:1,2010-03-01T00:18:00Z,28.1560,-82.7580,11.69,1111122 
COMPS,ioos:station:USF.COMPS:TAR:1,2010-03-01T00:24:00Z,28.1560,-82.7580,11.75,1111122 
COMPS,ioos:station:USF.COMPS:TAR:1,2010-03-01T00:30:00Z,28.1560,-82.7580,11.61,1111122 
COMPS,ioos:station:USF.COMPS:TAR:1,2010-03-01T00:36:00Z,28.1560,-82.7580,11.53,1111122 
COMPS,ioos:station:USF.COMPS:TAR:1,2010-03-01T00:42:00Z,28.1560,-82.7580,11.46,1111122 
COMPS,ioos:station:USF.COMPS:TAR:1,2010-03-01T00:48:00Z,28.1560,-82.7580,11.45,1111122 
COMPS,ioos:station:USF.COMPS:TAR:1,2010-03-01T00:54:00Z,28.1560,-82.7580,11.44,1111122 
COMPS,ioos:station:USF.COMPS:TAR:1,2010-03-01T01:00:00Z,28.1560,-82.7580,11.44,1111122 
COMPS,ioos:station:USF.COMPS:TAR:1,2010-03-01T01:06:00Z,28.1560,-82.7580,11.4,1111122 
COMPS,ioos:station:USF.COMPS:TAR:1,2010-03-01T01:12:00Z,28.1560,-82.7580,11.37,1111122 
COMPS,ioos:station:USF.COMPS:TAR:1,2010-03-01T01:18:00Z,28.1560,-82.7580,11.43,1111122 
COMPS,ioos:station:USF.COMPS:TAR:1,2010-03-01T01:24:00Z,28.1560,-82.7580,11.48,1111122 
COMPS,ioos:station:USF.COMPS:TAR:1,2010-03-01T01:30:00Z,28.1560,-82.7580,11.5,1111122 
COMPS,ioos:station:USF.COMPS:TAR:1,2010-03-01T01:36:00Z,28.1560,-82.7580,11.56,1111122 
COMPS,ioos:station:USF.COMPS:TAR:1,2010-03-01T01:42:00Z,28.1560,-82.7580,11.58,1111122 
COMPS,ioos:station:USF.COMPS:TAR:1,2010-03-01T01:48:00Z,28.1560,-82.7580,11.66,1111122 
COMPS,ioos:station:USF.COMPS:TAR:1,2010-03-01T01:54:00Z,28.1560,-82.7580,11.71,1111122 
COMPS,ioos:station:USF.COMPS:TAR:1,2010-03-01T02:00:00Z,28.1560,-82.7580,11.64,1111122 
COMPS,ioos:station:USF.COMPS:TAR:1,2010-03-01T02:06:00Z,28.1560,-82.7580,11.69,1111122 
COMPS,ioos:station:USF.COMPS:TAR:1,2010-03-01T02:12:00Z,28.1560,-82.7580,11.63,1111122 
COMPS,ioos:station:USF.COMPS:TAR:1,2010-03-01T02:18:00Z,28.1560,-82.7580,11.6,1111122 
COMPS,ioos:station:USF.COMPS:TAR:1,2010-03-01T02:24:00Z,28.1560,-82.7580,11.63,1111122 
COMPS,ioos:station:USF.COMPS:TAR:1,2010-03-01T02:30:00Z,28.1560,-82.7580,11.53,1111122 
COMPS,ioos:station:USF.COMPS:TAR:1,2010-03-01T02:36:00Z,28.1560,-82.7580,11.54,1111122 
COMPS,ioos:station:USF.COMPS:TAR:1,2010-03-01T02:42:00Z,28.1560,-82.7580,11.57,1111122 
COMPS,ioos:station:USF.COMPS:TAR:1,2010-03-01T02:48:00Z,28.1560,-82.7580,11.5,1111122 
COMPS,ioos:station:USF.COMPS:TAR:1,2010-03-01T02:54:00Z,28.1560,-82.7580,11.39,1111122 
COMPS,ioos:station:USF.COMPS:TAR:1,2010-03-01T03:00:00Z,28.1560,-82.7580,11.32,1111122 
COMPS,ioos:station:USF.COMPS:TAR:1,2010-03-01T03:06:00Z,28.1560,-82.7580,11.24,1111122 
COMPS,ioos:station:USF.COMPS:TAR:1,2010-03-01T03:12:00Z,28.1560,-82.7580,11.18,1111122 
COMPS,ioos:station:USF.COMPS:TAR:1,2010-03-01T03:18:00Z,28.1560,-82.7580,11.17,1111122 
COMPS,ioos:station:USF.COMPS:TAR:1,2010-03-01T03:24:00Z,28.1560,-82.7580,11.2,1111122 
COMPS,ioos:station:USF.COMPS:TAR:1,2010-03-01T03:30:00Z,28.1560,-82.7580,11.13,1111122 
COMPS,ioos:station:USF.COMPS:TAR:1,2010-03-01T03:36:00Z,28.1560,-82.7580,11.2,1111122 
COMPS,ioos:station:USF.COMPS:TAR:1,2010-03-01T03:42:00Z,28.1560,-82.7580,11.44,1111122 
COMPS,ioos:station:USF.COMPS:TAR:1,2010-03-01T03:48:00Z,28.1560,-82.7580,11.37,1111122 
COMPS,ioos:station:USF.COMPS:TAR:1,2010-03-01T03:54:00Z,28.1560,-82.7580,11.1,1111122 
COMPS,ioos:station:USF.COMPS:TAR:1,2010-03-01T04:00:00Z,28.1560,-82.7580,10.94,1111122 
COMPS,ioos:station:USF.COMPS:TAR:1,2010-03-01T04:06:00Z,28.1560,-82.7580,10.78,1111122 
COMPS,ioos:station:USF.COMPS:TAR:1,2010-03-01T04:12:00Z,28.1560,-82.7580,10.62,1111122 
COMPS,ioos:station:USF.COMPS:TAR:1,2010-03-01T04:18:00Z,28.1560,-82.7580,10.49,1111122 
COMPS,ioos:station:USF.COMPS:TAR:1,2010-03-01T04:24:00Z,28.1560,-82.7580,10.39,1111122 
COMPS,ioos:station:USF.COMPS:TAR:1,2010-03-01T04:30:00Z,28.1560,-82.7580,10.43,1111122 
COMPS,ioos:station:USF.COMPS:TAR:1,2010-03-01T04:36:00Z,28.1560,-82.7580,10.61,1111122 
COMPS,ioos:station:USF.COMPS:TAR:1,2010-03-01T04:42:00Z,28.1560,-82.7580,10.75,1111122 
COMPS,ioos:station:USF.COMPS:TAR:1,2010-03-01T04:48:00Z,28.1560,-82.7580,10.88,1111122 
COMPS,ioos:station:USF.COMPS:TAR:1,2010-03-01T04:54:00Z,28.1560,-82.7580,10.91,1111122 
COMPS,ioos:station:USF.COMPS:TAR:1,2010-03-01T05:00:00Z,28.1560,-82.7580,10.9,1111122 
COMPS,ioos:station:USF.COMPS:TAR:1,2010-03-01T05:06:00Z,28.1560,-82.7580,10.91,1111122 
COMPS,ioos:station:USF.COMPS:TAR:1,2010-03-01T05:12:00Z,28.1560,-82.7580,10.88,1111122 
COMPS,ioos:station:USF.COMPS:TAR:1,2010-03-01T05:18:00Z,28.1560,-82.7580,10.78,1111122 
COMPS,ioos:station:USF.COMPS:TAR:1,2010-03-01T05:24:00Z,28.1560,-82.7580,10.84,1111122 
COMPS,ioos:station:USF.COMPS:TAR:1,2010-03-01T05:30:00Z,28.1560,-82.7580,10.97,1111122 
COMPS,ioos:station:USF.COMPS:TAR:1,2010-03-01T05:36:00Z,28.1560,-82.7580,10.91,1111122 
COMPS,ioos:station:USF.COMPS:TAR:1,2010-03-01T05:42:00Z,28.1560,-82.7580,10.91,1111122 
COMPS,ioos:station:USF.COMPS:TAR:1,2010-03-01T05:48:00Z,28.1560,-82.7580,10.66,1111122 
COMPS,ioos:station:USF.COMPS:TAR:1,2010-03-01T05:54:00Z,28.1560,-82.7580,10.44,1111122 
COMPS,ioos:station:USF.COMPS:TAR:1,2010-03-01T06:00:00Z,28.1560,-82.7580,10.26,1111122 
COMPS,ioos:station:USF.COMPS:TAR:1,2010-03-01T06:06:00Z,28.1560,-82.7580,10.01,1111122 
COMPS,ioos:station:USF.COMPS:TAR:1,2010-03-01T06:12:00Z,28.1560,-82.7580,9.95,1111122 
COMPS,ioos:station:USF.COMPS:TAR:1,2010-03-01T06:18:00Z,28.1560,-82.7580,9.87,1111122 
COMPS,ioos:station:USF.COMPS:TAR:1,2010-03-01T06:24:00Z,28.1560,-82.7580,9.88,1111122 
COMPS,ioos:station:USF.COMPS:TAR:1,2010-03-01T06:30:00Z,28.1560,-82.7580,10.01,1111122 
COMPS,ioos:station:USF.COMPS:TAR:1,2010-03-01T06:36:00Z,28.1560,-82.7580,10.04,1111122 
COMPS,ioos:station:USF.COMPS:TAR:1,2010-03-01T06:42:00Z,28.1560,-82.7580,9.87,1111122 
COMPS,ioos:station:USF.COMPS:TAR:1,2010-03-01T06:48:00Z,28.1560,-82.7580,9.73,1111122 
COMPS,ioos:station:USF.COMPS:TAR:1,2010-03-01T06:54:00Z,28.1560,-82.7580,9.59,1111122 
COMPS,ioos:station:USF.COMPS:TAR:1,2010-03-01T07:00:00Z,28.1560,-82.7580,9.42,1111122 
COMPS,ioos:station:USF.COMPS:TAR:1,2010-03-01T07:06:00Z,28.1560,-82.7580,9.24,1111122 
COMPS,ioos:station:USF.COMPS:TAR:1,2010-03-01T07:12:00Z,28.1560,-82.7580,9.06,1111122 
COMPS,ioos:station:USF.COMPS:TAR:1,2010-03-01T07:18:00Z,28.1560,-82.7580,8.87,1111122 
COMPS,ioos:station:USF.COMPS:TAR:1,2010-03-01T07:24:00Z,28.1560,-82.7580,8.95,1111122 
COMPS,ioos:station:USF.COMPS:TAR:1,2010-03-01T07:30:00Z,28.1560,-82.7580,8.83,1111122 
COMPS,ioos:station:USF.COMPS:TAR:1,2010-03-01T07:36:00Z,28.1560,-82.7580,8.67,1111122 
COMPS,ioos:station:USF.COMPS:TAR:1,2010-03-01T07:42:00Z,28.1560,-82.7580,8.5,1111122 
COMPS,ioos:station:USF.COMPS:TAR:1,2010-03-01T07:48:00Z,28.1560,-82.7580,8.46,1111122 
COMPS,ioos:station:USF.COMPS:TAR:1,2010-03-01T07:54:00Z,28.1560,-82.7580,8.34,1111122 
COMPS,ioos:station:USF.COMPS:TAR:1,2010-03-01T08:00:00Z,28.1560,-82.7580,8.16,1111122 
COMPS,ioos:station:USF.COMPS:TAR:1,2010-03-01T08:06:00Z,28.1560,-82.7580,8.05,1111122 
COMPS,ioos:station:USF.COMPS:TAR:1,2010-03-01T08:12:00Z,28.1560,-82.7580,8.16,1111122 
COMPS,ioos:station:USF.COMPS:TAR:1,2010-03-01T08:18:00Z,28.1560,-82.7580,8.21,1111122 
COMPS,ioos:station:USF.COMPS:TAR:1,2010-03-01T08:24:00Z,28.1560,-82.7580,8.25,1111122 
COMPS,ioos:station:USF.COMPS:TAR:1,2010-03-01T08:30:00Z,28.1560,-82.7580,8.22,1111122 
COMPS,ioos:station:USF.COMPS:TAR:1,2010-03-01T08:36:00Z,28.1560,-82.7580,8.2,1111122 
COMPS,ioos:station:USF.COMPS:TAR:1,2010-03-01T08:42:00Z,28.1560,-82.7580,8.18,1111122 
COMPS,ioos:station:USF.COMPS:TAR:1,2010-03-01T08:48:00Z,28.1560,-82.7580,8.05,1111122 
COMPS,ioos:station:USF.COMPS:TAR:1,2010-03-01T08:54:00Z,28.1560,-82.7580,7.88,1111122 
COMPS,ioos:station:USF.COMPS:TAR:1,2010-03-01T09:00:00Z,28.1560,-82.7580,7.72,1111122 
COMPS,ioos:station:USF.COMPS:TAR:1,2010-03-01T09:06:00Z,28.1560,-82.7580,7.68,1111122 
COMPS,ioos:station:USF.COMPS:TAR:1,2010-03-01T09:12:00Z,28.1560,-82.7580,7.71,1111122 
COMPS,ioos:station:USF.COMPS:TAR:1,2010-03-01T09:18:00Z,28.1560,-82.7580,7.57,1111122 
COMPS,ioos:station:USF.COMPS:TAR:1,2010-03-01T09:24:00Z,28.1560,-82.7580,7.46,1111122 
COMPS,ioos:station:USF.COMPS:TAR:1,2010-03-01T09:30:00Z,28.1560,-82.7580,7.47,1111122 
COMPS,ioos:station:USF.COMPS:TAR:1,2010-03-01T09:36:00Z,28.1560,-82.7580,7.52,1111122 
COMPS,ioos:station:USF.COMPS:TAR:1,2010-03-01T09:42:00Z,28.1560,-82.7580,7.55,1111122 
COMPS,ioos:station:USF.COMPS:TAR:1,2010-03-01T09:48:00Z,28.1560,-82.7580,7.51,1111122 
COMPS,ioos:station:USF.COMPS:TAR:1,2010-03-01T09:54:00Z,28.1560,-82.7580,7.54,1111122 
COMPS,ioos:station:USF.COMPS:TAR:1,2010-03-01T10:00:00Z,28.1560,-82.7580,7.51,1111122 
COMPS,ioos:station:USF.COMPS:TAR:1,2010-03-01T10:06:00Z,28.1560,-82.7580,7.55,1111122 
COMPS,ioos:station:USF.COMPS:TAR:1,2010-03-01T10:12:00Z,28.1560,-82.7580,7.61,1111122 
COMPS,ioos:station:USF.COMPS:TAR:1,2010-03-01T10:18:00Z,28.1560,-82.7580,7.51,1111122 
COMPS,ioos:station:USF.COMPS:TAR:1,2010-03-01T10:24:00Z,28.1560,-82.7580,7.71,1111122 
COMPS,ioos:station:USF.COMPS:TAR:1,2010-03-01T10:30:00Z,28.1560,-82.7580,7.79,1111122 
COMPS,ioos:station:USF.COMPS:TAR:1,2010-03-01T10:36:00Z,28.1560,-82.7580,7.68,1111122 
COMPS,ioos:station:USF.COMPS:TAR:1,2010-03-01T10:42:00Z,28.1560,-82.7580,7.57,1111122 
COMPS,ioos:station:USF.COMPS:TAR:1,2010-03-01T10:48:00Z,28.1560,-82.7580,7.6,1111122 
COMPS,ioos:station:USF.COMPS:TAR:1,2010-03-01T10:54:00Z,28.1560,-82.7580,7.51,1111122 
COMPS,ioos:station:USF.COMPS:TAR:1,2010-03-01T11:00:00Z,28.1560,-82.7580,7.41,1111122 
COMPS,ioos:station:USF.COMPS:TAR:1,2010-03-01T11:06:00Z,28.1560,-82.7580,7.44,1111122 
COMPS,ioos:station:USF.COMPS:TAR:1,2010-03-01T11:12:00Z,28.1560,-82.7580,7.51,1111122 
COMPS,ioos:station:USF.COMPS:TAR:1,2010-03-01T11:18:00Z,28.1560,-82.7580,7.5,1111122 
COMPS,ioos:station:USF.COMPS:TAR:1,2010-03-01T11:24:00Z,28.1560,-82.7580,7.54,1111122 
COMPS,ioos:station:USF.COMPS:TAR:1,2010-03-01T11:30:00Z,28.1560,-82.7580,7.44,1111122 
COMPS,ioos:station:USF.COMPS:TAR:1,2010-03-01T11:36:00Z,28.1560,-82.7580,7.51,1111122 
COMPS,ioos:station:USF.COMPS:TAR:1,2010-03-01T11:42:00Z,28.1560,-82.7580,7.46,1111122 
COMPS,ioos:station:USF.COMPS:TAR:1,2010-03-01T11:48:00Z,28.1560,-82.7580,7.37,1111122 
COMPS,ioos:station:USF.COMPS:TAR:1,2010-03-01T11:54:00Z,28.1560,-82.7580,7.42,1111122 
COMPS,ioos:station:USF.COMPS:TAR:1,2010-03-01T12:00:00Z,28.1560,-82.7580,7.46,1111122 
COMPS,ioos:station:USF.COMPS:TAR:1,2010-03-01T12:06:00Z,28.1560,-82.7580,7.57,1111122 
COMPS,ioos:station:USF.COMPS:TAR:1,2010-03-01T12:12:00Z,28.1560,-82.7580,7.66,1111122 
COMPS,ioos:station:USF.COMPS:TAR:1,2010-03-01T12:18:00Z,28.1560,-82.7580,7.91,1111122 
COMPS,ioos:station:USF.COMPS:TAR:1,2010-03-01T12:24:00Z,28.1560,-82.7580,8.28,1111122 
COMPS,ioos:station:USF.COMPS:TAR:1,2010-03-01T12:30:00Z,28.1560,-82.7580,9.08,1111122 
COMPS,ioos:station:USF.COMPS:TAR:1,2010-03-01T12:36:00Z,28.1560,-82.7580,10.01,1111122 
COMPS,ioos:station:USF.COMPS:TAR:1,2010-03-01T12:42:00Z,28.1560,-82.7580,10.57,1111122 
COMPS,ioos:station:USF.COMPS:TAR:1,2010-03-01T12:48:00Z,28.1560,-82.7580,10.17,1111122 
COMPS,ioos:station:USF.COMPS:TAR:1,2010-03-01T12:54:00Z,28.1560,-82.7580,10.76,1111122 
COMPS,ioos:station:USF.COMPS:TAR:1,2010-03-01T13:00:00Z,28.1560,-82.7580,12.18,1111122 
COMPS,ioos:station:USF.COMPS:TAR:1,2010-03-01T13:06:00Z,28.1560,-82.7580,12.77,1111122 
COMPS,ioos:station:USF.COMPS:TAR:1,2010-03-01T13:12:00Z,28.1560,-82.7580,12.68,1111122 
COMPS,ioos:station:USF.COMPS:TAR:1,2010-03-01T13:18:00Z,28.1560,-82.7580,12.88,1111122 
COMPS,ioos:station:USF.COMPS:TAR:1,2010-03-01T13:24:00Z,28.1560,-82.7580,13.57,1111122 
COMPS,ioos:station:USF.COMPS:TAR:1,2010-03-01T13:30:00Z,28.1560,-82.7580,15.37,1111122 
COMPS,ioos:station:USF.COMPS:TAR:1,2010-03-01T13:36:00Z,28.1560,-82.7580,16.89,1111122 
COMPS,ioos:station:USF.COMPS:TAR:1,2010-03-01T13:42:00Z,28.1560,-82.7580,17.57,1111122 
COMPS,ioos:station:USF.COMPS:TAR:1,2010-03-01T13:48:00Z,28.1560,-82.7580,18.12,1111122 
COMPS,ioos:station:USF.COMPS:TAR:1,2010-03-01T13:54:00Z,28.1560,-82.7580,18.75,1111122 
COMPS,ioos:station:USF.COMPS:TAR:1,2010-03-01T14:00:00Z,28.1560,-82.7580,18.92,1111122 
COMPS,ioos:station:USF.COMPS:TAR:1,2010-03-01T14:06:00Z,28.1560,-82.7580,19.16,1111122 
COMPS,ioos:station:USF.COMPS:TAR:1,2010-03-01T14:12:00Z,28.1560,-82.7580,19.1,1111122 
COMPS,ioos:station:USF.COMPS:TAR:1,2010-03-01T14:18:00Z,28.1560,-82.7580,18.21,1111122 
COMPS,ioos:station:USF.COMPS:TAR:1,2010-03-01T14:24:00Z,28.1560,-82.7580,18.05,1111122 
COMPS,ioos:station:USF.COMPS:TAR:1,2010-03-01T14:30:00Z,28.1560,-82.7580,18.43,1111122 
COMPS,ioos:station:USF.COMPS:TAR:1,2010-03-01T14:36:00Z,28.1560,-82.7580,18.45,1111122 
COMPS,ioos:station:USF.COMPS:TAR:1,2010-03-01T14:42:00Z,28.1560,-82.7580,20.02,1111122 
COMPS,ioos:station:USF.COMPS:TAR:1,2010-03-01T14:48:00Z,28.1560,-82.7580,21.37,1111122 
COMPS,ioos:station:USF.COMPS:TAR:1,2010-03-01T14:54:00Z,28.1560,-82.7580,21.82,1111122 
COMPS,ioos:station:USF.COMPS:TAR:1,2010-03-01T15:00:00Z,28.1560,-82.7580,21.16,1111122 
COMPS,ioos:station:USF.COMPS:TAR:1,2010-03-01T15:06:00Z,28.1560,-82.7580,21.13,1111122 
COMPS,ioos:station:USF.COMPS:TAR:1,2010-03-01T15:12:00Z,28.1560,-82.7580,21.53,1111122 
COMPS,ioos:station:USF.COMPS:TAR:1,2010-03-01T15:18:00Z,28.1560,-82.7580,21.87,1111122 
COMPS,ioos:station:USF.COMPS:TAR:1,2010-03-01T15:24:00Z,28.1560,-82.7580,22.63,1111122 
COMPS,ioos:station:USF.COMPS:TAR:1,2010-03-01T15:30:00Z,28.1560,-82.7580,23.09,1111122 
COMPS,ioos:station:USF.COMPS:TAR:1,2010-03-01T15:36:00Z,28.1560,-82.7580,23.18,1111122 
COMPS,ioos:station:USF.COMPS:TAR:1,2010-03-01T15:42:00Z,28.1560,-82.7580,22.71,1111122 
COMPS,ioos:station:USF.COMPS:TAR:1,2010-03-01T15:48:00Z,28.1560,-82.7580,22.36,1111122 
COMPS,ioos:station:USF.COMPS:TAR:1,2010-03-01T15:54:00Z,28.1560,-82.7580,22.69,1111122 
COMPS,ioos:station:USF.COMPS:TAR:1,2010-03-01T16:00:00Z,28.1560,-82.7580,22.52,1111122 
COMPS,ioos:station:USF.COMPS:TAR:1,2010-03-01T16:06:00Z,28.1560,-82.7580,22.68,1111122 
COMPS,ioos:station:USF.COMPS:TAR:1,2010-03-01T16:12:00Z,28.1560,-82.7580,22.88,1111122 
COMPS,ioos:station:USF.COMPS:TAR:1,2010-03-01T16:18:00Z,28.1560,-82.7580,22.4,1111122 
COMPS,ioos:station:USF.COMPS:TAR:1,2010-03-01T16:24:00Z,28.1560,-82.7580,22.77,1111122 
COMPS,ioos:station:USF.COMPS:TAR:1,2010-03-01T16:30:00Z,28.1560,-82.7580,22.91,1111122 
COMPS,ioos:station:USF.COMPS:TAR:1,2010-03-01T16:36:00Z,28.1560,-82.7580,22.46,1111122 
COMPS,ioos:station:USF.COMPS:TAR:1,2010-03-01T16:42:00Z,28.1560,-82.7580,21.59,1111122 
COMPS,ioos:station:USF.COMPS:TAR:1,2010-03-01T16:48:00Z,28.1560,-82.7580,21.44,1111122 
COMPS,ioos:station:USF.COMPS:TAR:1,2010-03-01T16:54:00Z,28.1560,-82.7580,21.81,1111122 
COMPS,ioos:station:USF.COMPS:TAR:1,2010-03-01T17:00:00Z,28.1560,-82.7580,21.71,1111122 
COMPS,ioos:station:USF.COMPS:TAR:1,2010-03-01T17:06:00Z,28.1560,-82.7580,21.12,1111122 
COMPS,ioos:station:USF.COMPS:TAR:1,2010-03-01T17:12:00Z,28.1560,-82.7580,20.49,1111122 
COMPS,ioos:station:USF.COMPS:TAR:1,2010-03-01T17:18:00Z,28.1560,-82.7580,20.01,1111122 
COMPS,ioos:station:USF.COMPS:TAR:1,2010-03-01T17:24:00Z,28.1560,-82.7580,21.34,1111122 
COMPS,ioos:station:USF.COMPS:TAR:1,2010-03-01T17:30:00Z,28.1560,-82.7580,21.85,1111122 
COMPS,ioos:station:USF.COMPS:TAR:1,2010-03-01T17:36:00Z,28.1560,-82.7580,22.22,1111122 
COMPS,ioos:station:USF.COMPS:TAR:1,2010-03-01T17:42:00Z,28.1560,-82.7580,22.31,1111122 
COMPS,ioos:station:USF.COMPS:TAR:1,2010-03-01T17:48:00Z,28.1560,-82.7580,22.01,1111122 
COMPS,ioos:station:USF.COMPS:TAR:1,2010-03-01T17:54:00Z,28.1560,-82.7580,21.64,1111122 
COMPS,ioos:station:USF.COMPS:TAR:1,2010-03-01T18:00:00Z,28.1560,-82.7580,21.83,1111122 
COMPS,ioos:station:USF.COMPS:TAR:1,2010-03-01T18:06:00Z,28.1560,-82.7580,21.74,1111122 
COMPS,ioos:station:USF.COMPS:TAR:1,2010-03-01T18:12:00Z,28.1560,-82.7580,21.61,1111122 
COMPS,ioos:station:USF.COMPS:TAR:1,2010-03-01T18:18:00Z,28.1560,-82.7580,21.57,1111122 
COMPS,ioos:station:USF.COMPS:TAR:1,2010-03-01T18:24:00Z,28.1560,-82.7580,21.49,1111122 
COMPS,ioos:station:USF.COMPS:TAR:1,2010-03-01T18:30:00Z,28.1560,-82.7580,21.54,1111122 
COMPS,ioos:station:USF.COMPS:TAR:1,2010-03-01T18:36:00Z,28.1560,-82.7580,21.42,1111122 
COMPS,ioos:station:USF.COMPS:TAR:1,2010-03-01T18:42:00Z,28.1560,-82.7580,21.04,1111122 
COMPS,ioos:station:USF.COMPS:TAR:1,2010-03-01T18:48:00Z,28.1560,-82.7580,20.67,1111122 
COMPS,ioos:station:USF.COMPS:TAR:1,2010-03-01T18:54:00Z,28.1560,-82.7580,20.49,1111122 
COMPS,ioos:station:USF.COMPS:TAR:1,2010-03-01T19:00:00Z,28.1560,-82.7580,20.64,1111122 
COMPS,ioos:station:USF.COMPS:TAR:1,2010-03-01T19:06:00Z,28.1560,-82.7580,20.76,1111122 
COMPS,ioos:station:USF.COMPS:TAR:1,2010-03-01T19:12:00Z,28.1560,-82.7580,20.73,1111122 
COMPS,ioos:station:USF.COMPS:TAR:1,2010-03-01T19:18:00Z,28.1560,-82.7580,20.93,1111122 
COMPS,ioos:station:USF.COMPS:TAR:1,2010-03-01T19:24:00Z,28.1560,-82.7580,21.04,1111122 
COMPS,ioos:station:USF.COMPS:TAR:1,2010-03-01T19:30:00Z,28.1560,-82.7580,20.89,1111122 
COMPS,ioos:station:USF.COMPS:TAR:1,2010-03-01T19:36:00Z,28.1560,-82.7580,21.09,1111122 
COMPS,ioos:station:USF.COMPS:TAR:1,2010-03-01T19:42:00Z,28.1560,-82.7580,21.22,1111122 
COMPS,ioos:station:USF.COMPS:TAR:1,2010-03-01T19:48:00Z,28.1560,-82.7580,21.25,1111122 
COMPS,ioos:station:USF.COMPS:TAR:1,2010-03-01T19:54:00Z,28.1560,-82.7580,21.12,1111122 
COMPS,ioos:station:USF.COMPS:TAR:1,2010-03-01T20:00:00Z,28.1560,-82.7580,21.22,1111122 
COMPS,ioos:station:USF.COMPS:TAR:1,2010-03-01T20:06:00Z,28.1560,-82.7580,21.37,1111122 
COMPS,ioos:station:USF.COMPS:TAR:1,2010-03-01T20:12:00Z,28.1560,-82.7580,21.42,1111122 
COMPS,ioos:station:USF.COMPS:TAR:1,2010-03-01T20:18:00Z,28.1560,-82.7580,21.26,1111122 
COMPS,ioos:station:USF.COMPS:TAR:1,2010-03-01T20:24:00Z,28.1560,-82.7580,21.11,1111122 
COMPS,ioos:station:USF.COMPS:TAR:1,2010-03-01T20:30:00Z,28.1560,-82.7580,20.81,1111122 
COMPS,ioos:station:USF.COMPS:TAR:1,2010-03-01T20:36:00Z,28.1560,-82.7580,20.66,1111122 
COMPS,ioos:station:USF.COMPS:TAR:1,2010-03-01T20:42:00Z,28.1560,-82.7580,20.93,1111122 
COMPS,ioos:station:USF.COMPS:TAR:1,2010-03-01T20:48:00Z,28.1560,-82.7580,20.83,1111122 
COMPS,ioos:station:USF.COMPS:TAR:1,2010-03-01T20:54:00Z,28.1560,-82.7580,20.78,1111122 
COMPS,ioos:station:USF.COMPS:TAR:1,2010-03-01T21:00:00Z,28.1560,-82.7580,20.7,1111122 
COMPS,ioos:station:USF.COMPS:TAR:1,2010-03-01T21:06:00Z,28.1560,-82.7580,20.42,1111122 
COMPS,ioos:station:USF.COMPS:TAR:1,2010-03-01T21:12:00Z,28.1560,-82.7580,20.33,1111122 
COMPS,ioos:station:USF.COMPS:TAR:1,2010-03-01T21:18:00Z,28.1560,-82.7580,20.33,1111122 
COMPS,ioos:station:USF.COMPS:TAR:1,2010-03-01T21:24:00Z,28.1560,-82.7580,19.96,1111122 
COMPS,ioos:station:USF.COMPS:TAR:1,2010-03-01T21:30:00Z,28.1560,-82.7580,19.65,1111122 
COMPS,ioos:station:USF.COMPS:TAR:1,2010-03-01T21:36:00Z,28.1560,-82.7580,19.67,1111122 
COMPS,ioos:station:USF.COMPS:TAR:1,2010-03-01T21:42:00Z,28.1560,-82.7580,19.74,1111122 
COMPS,ioos:station:USF.COMPS:TAR:1,2010-03-01T21:48:00Z,28.1560,-82.7580,19.68,1111122 
COMPS,ioos:station:USF.COMPS:TAR:1,2010-03-01T21:54:00Z,28.1560,-82.7580,19.78,1111122 
COMPS,ioos:station:USF.COMPS:TAR:1,2010-03-01T22:00:00Z,28.1560,-82.7580,19.84,1111122 
COMPS,ioos:station:USF.COMPS:TAR:1,2010-03-01T22:06:00Z,28.1560,-82.7580,19.59,1111122 
COMPS,ioos:station:USF.COMPS:TAR:1,2010-03-01T22:12:00Z,28.1560,-82.7580,19.41,1111122 
COMPS,ioos:station:USF.COMPS:TAR:1,2010-03-01T22:18:00Z,28.1560,-82.7580,19.36,1111122 
COMPS,ioos:station:USF.COMPS:TAR:1,2010-03-01T22:24:00Z,28.1560,-82.7580,19.35,1111122 
COMPS,ioos:station:USF.COMPS:TAR:1,2010-03-01T22:30:00Z,28.1560,-82.7580,19.31,1111122 
COMPS,ioos:station:USF.COMPS:TAR:1,2010-03-01T22:36:00Z,28.1560,-82.7580,19.2,1111122 
COMPS,ioos:station:USF.COMPS:TAR:1,2010-03-01T22:42:00Z,28.1560,-82.7580,18.86,1111122 
COMPS,ioos:station:USF.COMPS:TAR:1,2010-03-01T22:48:00Z,28.1560,-82.7580,18.53,1111122 
COMPS,ioos:station:USF.COMPS:TAR:1,2010-03-01T22:54:00Z,28.1560,-82.7580,18.24,1111122 
COMPS,ioos:station:USF.COMPS:TAR:1,2010-03-01T23:00:00Z,28.1560,-82.7580,17.95,1111122 
COMPS,ioos:station:USF.COMPS:TAR:1,2010-03-01T23:06:00Z,28.1560,-82.7580,17.79,1111122 
COMPS,ioos:station:USF.COMPS:TAR:1,2010-03-01T23:12:00Z,28.1560,-82.7580,17.57,1111122 
COMPS,ioos:station:USF.COMPS:TAR:1,2010-03-01T23:18:00Z,28.1560,-82.7580,17.2,1111122 
COMPS,ioos:station:USF.COMPS:TAR:1,2010-03-01T23:24:00Z,28.1560,-82.7580,16.86,1111122 
COMPS,ioos:station:USF.COMPS:TAR:1,2010-03-01T23:30:00Z,28.1560,-82.7580,16.49,1111122 
COMPS,ioos:station:USF.COMPS:TAR:1,2010-03-01T23:36:00Z,28.1560,-82.7580,16.19,1111122 
COMPS,ioos:station:USF.COMPS:TAR:1,2010-03-01T23:42:00Z,28.1560,-82.7580,15.82,1111122 
COMPS,ioos:station:USF.COMPS:TAR:1,2010-03-01T23:48:00Z,28.1560,-82.7580,15.54,1111122 
COMPS,ioos:station:USF.COMPS:TAR:1,2010-03-01T23:54:00Z,28.1560,-82.7580,15.34,1111122 
COMPS,ioos:station:USF.COMPS:TAR:1,2010-03-02T00:00:00Z,28.1560,-82.7580,15.21,1111122 
COMPS,ioos:station:USF.COMPS:TAR:1,2010-03-02T00:06:00Z,28.1560,-82.7580,15.02,1111122 
COMPS,ioos:station:USF.COMPS:TAR:1,2010-03-02T00:12:00Z,28.1560,-82.7580,14.91,1111122 
COMPS,ioos:station:USF.COMPS:TAR:1,2010-03-02T00:18:00Z,28.1560,-82.7580,14.71,1111122 
COMPS,ioos:station:USF.COMPS:TAR:1,2010-03-02T00:24:00Z,28.1560,-82.7580,14.54,1111122 
COMPS,ioos:station:USF.COMPS:TAR:1,2010-03-02T00:30:00Z,28.1560,-82.7580,14.3,1111122 
COMPS,ioos:station:USF.COMPS:TAR:1,2010-03-02T00:36:00Z,28.1560,-82.7580,14.06,1111122 
COMPS,ioos:station:USF.COMPS:TAR:1,2010-03-02T00:42:00Z,28.1560,-82.7580,13.8,1111122 
COMPS,ioos:station:USF.COMPS:TAR:1,2010-03-02T00:48:00Z,28.1560,-82.7580,13.43,1111122 
COMPS,ioos:station:USF.COMPS:TAR:1,2010-03-02T00:54:00Z,28.1560,-82.7580,13.13,1111122 
COMPS,ioos:station:USF.COMPS:TAR:1,2010-03-02T01:00:00Z,28.1560,-82.7580,12.87,1111122 
COMPS,ioos:station:USF.COMPS:TAR:1,2010-03-02T01:06:00Z,28.1560,-82.7580,12.71,1111122 
COMPS,ioos:station:USF.COMPS:TAR:1,2010-03-02T01:12:00Z,28.1560,-82.7580,12.54,1111122 
COMPS,ioos:station:USF.COMPS:TAR:1,2010-03-02T01:18:00Z,28.1560,-82.7580,12.59,1111122 
COMPS,ioos:station:USF.COMPS:TAR:1,2010-03-02T01:24:00Z,28.1560,-82.7580,12.9,1111122 
COMPS,ioos:station:USF.COMPS:TAR:1,2010-03-02T01:30:00Z,28.1560,-82.7580,13.21,1111122 
COMPS,ioos:station:USF.COMPS:TAR:1,2010-03-02T01:36:00Z,28.1560,-82.7580,13.12,1111122 
COMPS,ioos:station:USF.COMPS:TAR:1,2010-03-02T01:42:00Z,28.1560,-82.7580,13.01,1111122 
COMPS,ioos:station:USF.COMPS:TAR:1,2010-03-02T01:48:00Z,28.1560,-82.7580,12.95,1111122 
COMPS,ioos:station:USF.COMPS:TAR:1,2010-03-02T01:54:00Z,28.1560,-82.7580,12.8,1111122 
COMPS,ioos:station:USF.COMPS:TAR:1,2010-03-02T02:00:00Z,28.1560,-82.7580,12.37,1111122 
COMPS,ioos:station:USF.COMPS:TAR:1,2010-03-02T02:06:00Z,28.1560,-82.7580,11.94,1111122 
COMPS,ioos:station:USF.COMPS:TAR:1,2010-03-02T02:12:00Z,28.1560,-82.7580,11.76,1111122 
COMPS,ioos:station:USF.COMPS:TAR:1,2010-03-02T02:18:00Z,28.1560,-82.7580,11.68,1111122 
COMPS,ioos:station:USF.COMPS:TAR:1,2010-03-02T02:24:00Z,28.1560,-82.7580,11.7,1111122 
COMPS,ioos:station:USF.COMPS:TAR:1,2010-03-02T02:30:00Z,28.1560,-82.7580,11.68,1111122 
COMPS,ioos:station:USF.COMPS:TAR:1,2010-03-02T02:36:00Z,28.1560,-82.7580,11.69,1111122 
COMPS,ioos:station:USF.COMPS:TAR:1,2010-03-02T02:42:00Z,28.1560,-82.7580,11.56,1111122 
COMPS,ioos:station:USF.COMPS:TAR:1,2010-03-02T02:48:00Z,28.1560,-82.7580,11.49,1111122 
COMPS,ioos:station:USF.COMPS:TAR:1,2010-03-02T02:54:00Z,28.1560,-82.7580,11.42,1111122 
COMPS,ioos:station:USF.COMPS:TAR:1,2010-03-02T03:00:00Z,28.1560,-82.7580,11.44,1111122 
COMPS,ioos:station:USF.COMPS:TAR:1,2010-03-02T03:06:00Z,28.1560,-82.7580,11.49,1111122 